Location: Leuk
(46.3174°N, 7.6341°E)
Time: 18:39:47
(UTC+00:00)

USA 267 - Pass Details

Date: 09 March 2021
Orbit: 1099 x 1108 km, 123.0° (Epoch: 20 March)

Event Time Altitude Azimuth Distance (km) Brightness Sun altitude
Rises 05:07:46 0° 66° (ENE) 3,924 7.7 -8.8°
Reaches altitude 10° 05:10:27 10° 58° (ENE) 2,965 6.6 -8.3°
Maximum altitude 05:16:15 35° 356° (N) 1,697 4.3 -7.3°
Drops below altitude 10° 05:22:01 10° 293° (WNW) 2,960 5.0 -6.3°
Enters shadow 05:23:17 - 289° (WNW) 3,402 5.2 -6.1°
